Weather History for Sanford, ME

Change the Weather History Date:

Saturday, March 16, 2013

  Actual Average Record
Temperature  
Mean Temperature 24 °F -  
Max Temperature 33 °F 37 °F 44 °F (2001)
Min Temperature 15 °F 20 °F 6 °F (2003)
Degree Days  
Heating Degree Days 41    
Moisture  
Dew Point 11 °F    
Average Humidity 52    
Maximum Humidity 100    
Minimum Humidity 32    
Precipitation  
Precipitation 0.00 in - - ()
Sea Level Pressure  
Sea Level Pressure 29.77 in    
Wind  
Wind Speed 7 mph (WNW)    
Max Wind Speed 13 mph    
Max Gust Speed 18 mph    
Visibility 10 miles    
Events      
Averages and records for this station are not official NWS values.
T = Trace of Precipitation, MM = Missing Value Source: NWS Daily Summary

Daily Weather History Graph

Daily Weather History Graph

Search for Another Location

Airport:

Trip Planner

Search our weather history database for the weather conditions in past years. The results will help you decide how hot, cold, wet, or windy it might be!

Date:

Astronomy

Mar. 16, 2013 Rise Set
Actual Time 6:52 AM EDT 6:50 PM EDT
Civil Twilight 6:24 AM EDT 7:19 PM EDT
Nautical Twilight 5:51 AM EDT 7:52 PM EDT
Astronomical Twilight 5:17 AM EDT 8:26 PM EDT
Moon 9:11 AM EDT (3/16) No Moon Set
Length of Visible Light 12h 54m
Length of Day
11h 57m
Waxing Crescent, 23% of the Moon is Illuminated
Mar 16
Waxing Crescent
Mar 19
First Quarter
Mar 27
Full
Apr 3
Last Quarter
Apr 10
New

Hourly Weather History & Observations

Time (EDT) Temp. Windchill Dew Point Humidity Pressure Visibility Wind Dir Wind Speed Gust Speed Precip Events Conditions
12:15 AM 28.4 °F 21.2 °F 21.2 °F 74% 29.63 in 8.0 mi WNW 6.9 mph - N/A   Overcast
12:35 AM 28.4 °F 21.2 °F 24.8 °F 86% 29.64 in 10.0 mi WNW 6.9 mph - N/A   Overcast
12:55 AM 28.4 °F 20.4 °F 24.8 °F 86% 29.64 in 10.0 mi WNW 8.1 mph - N/A   Overcast
1:55 AM 28.4 °F 19.1 °F 21.2 °F 74% 29.66 in 10.0 mi WNW 10.4 mph - N/A   Clear
2:35 AM 26.6 °F 16.2 °F 10.4 °F 51% 29.67 in 10.0 mi WNW 11.5 mph 16.1 mph N/A   Clear
2:55 AM 26.6 °F 16.2 °F 21.2 °F 80% 29.68 in 10.0 mi WNW 11.5 mph 16.1 mph N/A   Clear
3:15 AM 26.6 °F 19.1 °F 17.6 °F 69% 29.68 in 10.0 mi WNW 6.9 mph - N/A   Clear
3:35 AM 26.6 °F 21.2 °F 6.8 °F 43% 29.69 in 10.0 mi NNW 4.6 mph - N/A   Clear
3:55 AM 24.8 °F 17.9 °F 19.4 °F 80% 29.70 in 10.0 mi NW 5.8 mph - N/A   Clear
4:15 AM 24.8 °F 17.9 °F 12.2 °F 59% 29.71 in 10.0 mi West 5.8 mph - N/A   Clear
4:35 AM 23.0 °F 17.0 °F 10.4 °F 59% 29.72 in 10.0 mi WSW 4.6 mph - N/A   Clear
4:55 AM 19.4 °F 12.8 °F 15.8 °F 86% 29.72 in 10.0 mi West 4.6 mph - N/A   Clear
5:15 AM 21.2 °F 13.6 °F 8.6 °F 58% 29.73 in 10.0 mi WNW 5.8 mph - N/A   Clear
5:35 AM 15.8 °F 6.1 °F 6.8 °F 68% 29.73 in 10.0 mi West 6.9 mph - N/A   Clear
5:55 AM 15.8 °F 8.6 °F 12.2 °F 86% 29.74 in 10.0 mi West 4.6 mph - N/A   Partly Cloudy
6:15 AM 17.6 °F - 10.4 °F 73% 29.76 in 10.0 mi Calm Calm - N/A   Mostly Cloudy
6:35 AM 17.6 °F 10.7 °F 17.6 °F 100% 29.77 in 10.0 mi SW 4.6 mph - N/A   Overcast
6:55 AM 21.2 °F 10.9 °F 8.6 °F 58% 29.76 in 10.0 mi West 9.2 mph - N/A   Mostly Cloudy
7:15 AM 21.2 °F 13.6 °F 19.4 °F 93% 29.78 in 10.0 mi WNW 5.8 mph - N/A   Clear
7:35 AM 23.0 °F 13.1 °F 8.6 °F 54% 29.78 in 10.0 mi West 9.2 mph - N/A   Clear
7:55 AM 24.8 °F 19.1 °F 17.6 °F 74% 29.79 in 10.0 mi NW 4.6 mph - N/A   Clear
8:15 AM 24.8 °F 17.9 °F 12.2 °F 59% 29.79 in 10.0 mi NW 5.8 mph - N/A   Clear
8:35 AM 24.8 °F 16.1 °F 14.0 °F 64% 29.80 in 10.0 mi NNW 8.1 mph - N/A   Mostly Cloudy
8:55 AM 24.8 °F 20.5 °F 17.6 °F 74% 29.81 in 10.0 mi NNW 3.5 mph - N/A   Overcast
9:15 AM 26.6 °F 21.2 °F 8.6 °F 47% 29.81 in 10.0 mi NW 4.6 mph - N/A   Mostly Cloudy
9:35 AM 26.6 °F 21.2 °F 17.6 °F 69% 29.81 in 10.0 mi NW 4.6 mph - N/A   Scattered Clouds
10:15 AM 28.4 °F 23.3 °F 15.8 °F 59% 29.81 in 10.0 mi North 4.6 mph - N/A   Clear
10:35 AM 28.4 °F 24.6 °F 15.8 °F 59% 29.81 in 10.0 mi NW 3.5 mph - N/A   Partly Cloudy
10:55 AM 28.4 °F 21.2 °F 8.6 °F 43% 29.80 in 10.0 mi NW 6.9 mph - N/A   Scattered Clouds
11:15 AM 28.4 °F 23.3 °F 12.2 °F 51% 29.79 in 10.0 mi North 4.6 mph - N/A   Partly Cloudy
11:35 AM 30.2 °F 25.4 °F 17.6 °F 60% 29.79 in 10.0 mi NNW 4.6 mph - N/A   Scattered Clouds
11:55 AM 30.2 °F 23.4 °F 10.4 °F 44% 29.79 in 10.0 mi West 6.9 mph - N/A   Scattered Clouds
12:15 PM 30.2 °F 23.4 °F 6.8 °F 37% 29.79 in 10.0 mi West 6.9 mph - N/A   Partly Cloudy
12:35 PM 30.2 °F 23.4 °F 6.8 °F 37% 29.79 in 10.0 mi NW 6.9 mph - N/A   Scattered Clouds
12:55 PM 32.0 °F 26.4 °F 12.2 °F 44% 29.79 in 10.0 mi West 5.8 mph - N/A   Scattered Clouds
1:15 PM 32.0 °F 23.6 °F 15.8 °F 51% 29.78 in 10.0 mi NW 10.4 mph - N/A   Scattered Clouds
1:35 PM 32.0 °F 23.6 °F 12.2 °F 44% 29.78 in 10.0 mi NW 10.4 mph - N/A   Mostly Cloudy
1:55 PM 30.2 °F 20.2 °F 10.4 °F 44% 29.77 in 10.0 mi West 12.7 mph - N/A   Scattered Clouds
2:15 PM 33.8 °F 25.8 °F 6.8 °F 32% 29.77 in 10.0 mi WNW 10.4 mph - N/A   Clear
2:35 PM 32.0 °F 22.5 °F 8.6 °F 38% 29.77 in 10.0 mi WNW 12.7 mph - N/A   Clear
2:55 PM 32.0 °F 23.0 °F 8.6 °F 38% 29.76 in 10.0 mi NW 11.5 mph - N/A   Scattered Clouds
3:15 PM 32.0 °F 23.6 °F 10.4 °F 41% 29.77 in 10.0 mi West 10.4 mph - N/A   Overcast
3:35 PM 32.0 °F 23.6 °F 8.6 °F 38% 29.78 in 10.0 mi WNW 10.4 mph 16.1 mph N/A   Overcast
3:55 PM 32.0 °F 23.0 °F 8.6 °F 38% 29.78 in 10.0 mi NW 11.5 mph - N/A   Overcast
4:15 PM 32.0 °F 23.6 °F 6.8 °F 35% 29.78 in 10.0 mi NW 10.4 mph 18.4 mph N/A   Overcast
4:35 PM 30.2 °F 20.8 °F 5.0 °F 34% 29.77 in 10.0 mi WNW 11.5 mph - N/A   Overcast
4:55 PM 30.2 °F 21.3 °F 6.8 °F 37% 29.77 in 10.0 mi WNW 10.4 mph - N/A   Overcast
5:15 PM 30.2 °F 20.2 °F 6.8 °F 37% 29.76 in 10.0 mi West 12.7 mph - N/A   Overcast
5:35 PM 30.2 °F 21.9 °F 8.6 °F 40% 29.76 in 10.0 mi West 9.2 mph - N/A   Scattered Clouds
5:55 PM 30.2 °F 21.3 °F 6.8 °F 37% 29.77 in 10.0 mi West 10.4 mph - N/A   Clear
6:15 PM 30.2 °F 23.4 °F 6.8 °F 37% 29.77 in 10.0 mi West 6.9 mph - N/A   Clear
6:35 PM 30.2 °F 21.9 °F 3.2 °F 32% 29.78 in 10.0 mi West 9.2 mph - N/A   Clear
6:55 PM 30.2 °F 25.4 °F 6.8 °F 37% 29.79 in 10.0 mi WNW 4.6 mph - N/A   Clear
7:15 PM 30.2 °F 26.7 °F 8.6 °F 40% 29.79 in 10.0 mi WNW 3.5 mph - N/A   Clear
7:35 PM 30.2 °F 26.7 °F 8.6 °F 40% 29.79 in 10.0 mi NW 3.5 mph - N/A   Scattered Clouds
7:55 PM 30.2 °F 25.4 °F 6.8 °F 37% 29.80 in 10.0 mi WNW 4.6 mph - N/A   Scattered Clouds
8:15 PM 30.2 °F 24.3 °F 6.8 °F 37% 29.81 in 10.0 mi WNW 5.8 mph - N/A   Partly Cloudy
8:35 PM 30.2 °F 26.7 °F 8.6 °F 40% 29.81 in 10.0 mi NW 3.5 mph - N/A   Clear
8:55 PM 30.2 °F 26.7 °F 8.6 °F 40% 29.82 in 10.0 mi WNW 3.5 mph - N/A   Partly Cloudy
9:15 PM 30.2 °F 26.7 °F 6.8 °F 37% 29.82 in 10.0 mi West 3.5 mph - N/A   Mostly Cloudy
9:35 PM 30.2 °F 26.7 °F 6.8 °F 37% 29.83 in 10.0 mi West 3.5 mph - N/A   Overcast
9:55 PM 30.2 °F - 10.4 °F 44% 29.84 in 10.0 mi Calm Calm - N/A   Overcast
10:15 PM 28.4 °F 23.3 °F 10.4 °F 47% 29.84 in 10.0 mi WNW 4.6 mph - N/A   Overcast
10:35 PM 28.4 °F 24.6 °F 6.8 °F 40% 29.85 in 10.0 mi WNW 3.5 mph - N/A   Overcast
10:55 PM 28.4 °F 24.6 °F 8.6 °F 43% 29.85 in 10.0 mi WNW 3.5 mph - N/A   Overcast
11:15 PM 28.4 °F - 10.4 °F 47% 29.86 in 10.0 mi Calm Calm - N/A   Overcast
11:35 PM 28.4 °F 24.6 °F 8.6 °F 43% 29.87 in 10.0 mi NW 3.5 mph - N/A   Overcast
11:55 PM 28.4 °F 24.6 °F 8.6 °F 43% 29.88 in 10.0 mi NNW 3.5 mph - N/A   Overcast